Time,TemperatureF,DewpointF,PressureIn,WindDirection,WindDirectionDegrees,WindSpeedMPH,WindSpeedGustMPH,Humidity,HourlyPrecipIn,Conditions,Clouds,dailyrainin,SoftwareType,DateUTC
2013-03-18 00:03:00,34.0,-99.9,30.28,North,350,13.0,19.0,-999,-99.99,,,-99.99,,2013-03-18 04:03:00,
2013-03-18 00:13:00,34.0,-99.9,30.28,North,357,14.0,19.0,-999,-99.99,,,-99.99,,2013-03-18 04:13:00,
2013-03-18 00:23:00,34.0,-99.9,30.28,North,2,11.0,16.0,-999,-99.99,,,-99.99,,2013-03-18 04:23:00,
2013-03-18 00:33:00,34.0,-99.9,30.29,North,356,13.0,17.0,-999,-99.99,,,-99.99,,2013-03-18 04:33:00,
2013-03-18 00:42:00,34.0,-99.9,30.29,North,4,15.0,19.0,-999,-99.99,,,-99.99,,2013-03-18 04:42:00,
2013-03-18 00:53:00,33.0,-99.9,30.29,North,2,13.0,17.0,-999,-99.99,,,-99.99,,2013-03-18 04:53:00,
2013-03-18 01:03:00,33.0,-99.9,30.29,North,3,15.0,21.0,-999,-99.99,,,-99.99,,2013-03-18 05:03:00,
2013-03-18 01:12:00,33.0,-99.9,30.29,North,6,10.0,18.0,-999,-99.99,,,-99.99,,2013-03-18 05:12:00,
2013-03-18 01:23:00,33.0,-99.9,30.29,North,4,12.0,22.0,-999,-99.99,,,-99.99,,2013-03-18 05:23:00,
2013-03-18 01:33:00,33.0,-99.9,30.29,North,8,12.0,18.0,-999,-99.99,,,-99.99,,2013-03-18 05:33:00,
2013-03-18 01:43:00,32.0,-99.9,30.30,North,360,13.0,20.0,-999,-99.99,,,-99.99,,2013-03-18 05:43:00,
2013-03-18 01:52:00,32.0,-99.9,30.30,North,6,12.0,20.0,-999,-99.99,,,-99.99,,2013-03-18 05:52:00,
2013-03-18 02:02:00,-999.0,-99.9,30.32,NNE,13,11.0,20.0,-999,-99.99,,,-99.99,,2013-03-18 06:02:00,
2013-03-18 02:12:00,32.0,-99.9,30.32,North,4,13.0,18.0,-999,-99.99,,,-99.99,,2013-03-18 06:12:00,
2013-03-18 02:22:00,-999.0,-99.9,30.32,NNE,13,12.0,19.0,-999,-99.99,,,-99.99,,2013-03-18 06:22:00,
2013-03-18 02:32:00,-999.0,-99.9,30.32,North,4,13.0,19.0,-999,-99.99,,,-99.99,,2013-03-18 06:32:00,
2013-03-18 02:42:00,-999.0,-99.9,30.32,North,5,16.0,20.0,-999,-99.99,,,-99.99,,2013-03-18 06:42:00,
2013-03-18 02:53:00,-999.0,-99.9,30.33,North,7,15.0,21.0,-999,-99.99,,,-99.99,,2013-03-18 06:53:00,
2013-03-18 03:02:00,-999.0,-99.9,30.33,North,8,15.0,21.0,-999,-99.99,,,-99.99,,2013-03-18 07:02:00,
2013-03-18 03:13:00,30.0,-99.9,30.33,North,5,13.0,21.0,-999,-99.99,,,-99.99,,2013-03-18 07:13:00,
2013-03-18 03:23:00,-999.0,-99.9,30.33,North,4,12.0,19.0,-999,-99.99,,,-99.99,,2013-03-18 07:23:00,
2013-03-18 03:33:00,-999.0,-99.9,30.33,North,6,16.0,23.0,-999,-99.99,,,-99.99,,2013-03-18 07:33:00,
2013-03-18 03:43:00,30.0,-99.9,30.34,North,5,15.0,24.0,-999,-99.99,,,-99.99,,2013-03-18 07:43:00,
2013-03-18 03:53:00,-999.0,-99.9,30.34,North,352,16.0,22.0,-999,-99.99,,,-99.99,,2013-03-18 07:53:00,
2013-03-18 04:02:00,-999.0,-99.9,30.34,North,355,15.0,23.0,-999,-99.99,,,-99.99,,2013-03-18 08:02:00,
2013-03-18 04:12:00,-999.0,-99.9,30.35,North,8,14.0,22.0,-999,-99.99,,,-99.99,,2013-03-18 08:12:00,
2013-03-18 04:22:00,-999.0,-99.9,30.35,North,3,19.0,23.0,-999,-99.99,,,-99.99,,2013-03-18 08:22:00,
2013-03-18 04:32:00,-999.0,-99.9,30.35,North,358,14.0,23.0,-999,-99.99,,,-99.99,,2013-03-18 08:32:00,
2013-03-18 04:43:00,29.0,-99.9,30.35,North,359,15.0,21.0,-999,-99.99,,,-99.99,,2013-03-18 08:43:00,
2013-03-18 04:53:00,-999.0,-99.9,30.35,North,2,13.0,21.0,-999,-99.99,,,-99.99,,2013-03-18 08:53:00,
2013-03-18 05:02:00,-999.0,-99.9,30.35,North,359,15.0,22.0,-999,-99.99,,,-99.99,,2013-03-18 09:02:00,
2013-03-18 05:13:00,29.0,-99.9,30.36,North,1,15.0,22.0,-999,-99.99,,,-99.99,,2013-03-18 09:13:00,
2013-03-18 05:22:00,-999.0,-99.9,30.36,NNE,13,11.0,19.0,-999,-99.99,,,-99.99,,2013-03-18 09:22:00,
2013-03-18 05:33:00,-999.0,-99.9,30.36,NNE,19,8.0,19.0,-999,-99.99,,,-99.99,,2013-03-18 09:33:00,
2013-03-18 05:43:00,29.0,-99.9,30.36,NNE,17,7.0,19.0,-999,-99.99,,,-99.99,,2013-03-18 09:43:00,
2013-03-18 05:53:00,-999.0,-99.9,30.37,NNE,21,8.0,17.0,-999,-99.99,,,-99.99,,2013-03-18 09:53:00,
2013-03-18 06:04:00,-999.0,-99.9,30.37,NNE,25,8.0,14.0,-999,-99.99,,,-99.99,,2013-03-18 10:04:00,
2013-03-18 06:13:00,29.0,-99.9,30.38,NNE,12,8.0,13.0,-999,-99.99,,,-99.99,,2013-03-18 10:13:00,
2013-03-18 06:23:00,-999.0,-99.9,30.39,North,10,7.0,15.0,-999,-99.99,,,-99.99,,2013-03-18 10:23:00,
2013-03-18 06:33:00,-999.0,-99.9,30.39,NNE,12,9.0,12.0,-999,-99.99,,,-99.99,,2013-03-18 10:33:00,
2013-03-18 06:42:00,-999.0,-99.9,30.40,NNE,24,7.0,14.0,-999,-99.99,,,-99.99,,2013-03-18 10:42:00,
2013-03-18 06:53:00,-999.0,-99.9,30.40,North,10,8.0,14.0,-999,-99.99,,,-99.99,,2013-03-18 10:53:00,
2013-03-18 07:03:00,-999.0,-99.9,30.41,North,11,8.0,13.0,-999,-99.99,,,-99.99,,2013-03-18 11:03:00,
2013-03-18 07:13:00,30.0,-99.9,30.41,NNE,20,6.0,13.0,-999,-99.99,,,-99.99,,2013-03-18 11:13:00,
2013-03-18 07:22:00,-999.0,-99.9,30.41,NNE,19,4.0,10.0,-999,-99.99,,,-99.99,,2013-03-18 11:22:00,
2013-03-18 07:32:00,-999.0,-99.9,30.42,NNE,24,4.0,12.0,-999,-99.99,,,-99.99,,2013-03-18 11:32:00,
2013-03-18 07:43:00,30.0,-99.9,30.42,NNE,32,6.0,11.0,-999,-99.99,,,-99.99,,2013-03-18 11:43:00,
2013-03-18 07:53:00,-999.0,-99.9,30.42,NNE,15,6.0,9.0,-999,-99.99,,,-99.99,,2013-03-18 11:53:00,
2013-03-18 08:03:00,-999.0,-99.9,30.42,NNE,30,7.0,9.0,-999,-99.99,,,-99.99,,2013-03-18 12:03:00,
2013-03-18 08:13:00,31.0,-99.9,30.42,NE,52,7.0,11.0,-999,-99.99,,,-99.99,,2013-03-18 12:13:00,
2013-03-18 08:22:00,-999.0,-99.9,30.43,NE,52,6.0,11.0,-999,-99.99,,,-99.99,,2013-03-18 12:22:00,
2013-03-18 08:33:00,-999.0,-99.9,30.43,NE,38,5.0,9.0,-999,-99.99,,,-99.99,,2013-03-18 12:33:00,
2013-03-18 08:43:00,-999.0,-99.9,30.43,NE,35,6.0,9.0,-999,-99.99,,,-99.99,,2013-03-18 12:43:00,
2013-03-18 08:52:00,32.0,-99.9,30.43,NNE,23,6.0,9.0,-999,-99.99,,,-99.99,,2013-03-18 12:52:00,
2013-03-18 09:03:00,-999.0,-99.9,30.43,ENE,65,8.0,10.0,-999,-99.99,,,-99.99,,2013-03-18 13:03:00,
2013-03-18 09:12:00,-999.0,-99.9,30.43,NE,40,6.0,8.0,-999,-99.99,,,-99.99,,2013-03-18 13:12:00,
2013-03-18 09:23:00,-999.0,-99.9,30.43,NE,54,6.0,11.0,-999,-99.99,,,-99.99,,2013-03-18 13:23:00,
2013-03-18 09:33:00,-999.0,-99.9,30.42,NE,54,6.0,11.0,-999,-99.99,,,-99.99,,2013-03-18 13:33:00,
2013-03-18 09:43:00,-999.0,-99.9,30.43,NNE,33,9.0,11.0,-999,-99.99,,,-99.99,,2013-03-18 13:43:00,
2013-03-18 09:52:00,-999.0,-99.9,30.43,NE,41,9.0,12.0,-999,-99.99,,,-99.99,,2013-03-18 13:52:00,
2013-03-18 10:03:00,-999.0,-99.9,30.43,NE,51,6.0,12.0,-999,-99.99,,,-99.99,,2013-03-18 14:03:00,
2013-03-18 10:12:00,32.0,-99.9,30.43,ENE,62,7.0,11.0,-999,-99.99,,,-99.99,,2013-03-18 14:12:00,
2013-03-18 10:22:00,-999.0,-99.9,30.43,NE,54,8.0,11.0,-999,-99.99,,,-99.99,,2013-03-18 14:22:00,
2013-03-18 10:32:00,-999.0,-99.9,30.43,ENE,61,8.0,11.0,-999,-99.99,,,-99.99,,2013-03-18 14:32:00,
2013-03-18 10:42:00,32.0,-99.9,30.43,NE,47,7.0,12.0,-999,-99.99,,,-99.99,,2013-03-18 14:42:00,
2013-03-18 10:52:00,-999.0,-99.9,30.43,ENE,62,9.0,11.0,-999,-99.99,,,-99.99,,2013-03-18 14:52:00,
2013-03-18 11:02:00,-999.0,-99.9,30.43,NE,48,7.0,11.0,-999,-99.99,,,-99.99,,2013-03-18 15:02:00,
2013-03-18 11:12:00,32.0,-99.9,30.43,NE,42,7.0,12.0,-999,-99.99,,,-99.99,,2013-03-18 15:12:00,
2013-03-18 11:23:00,-999.0,-99.9,30.43,NE,40,7.0,11.0,-999,-99.99,,,-99.99,,2013-03-18 15:23:00,
2013-03-18 11:33:00,-999.0,-99.9,30.42,NNE,24,6.0,11.0,-999,-99.99,,,-99.99,,2013-03-18 15:33:00,
2013-03-18 11:43:00,33.0,-99.9,30.43,NE,38,8.0,11.0,-999,-99.99,,,-99.99,,2013-03-18 15:43:00,
2013-03-18 11:52:00,32.0,-99.9,30.42,NE,41,7.0,12.0,-999,-99.99,,,-99.99,,2013-03-18 15:52:00,
2013-03-18 12:03:00,32.0,-99.9,30.42,NE,34,9.0,15.0,-999,-99.99,,,-99.99,,2013-03-18 16:03:00,
2013-03-18 12:12:00,32.0,-99.9,30.42,NE,41,9.0,13.0,-999,-99.99,,,-99.99,,2013-03-18 16:12:00,
2013-03-18 12:23:00,-999.0,-99.9,30.42,NE,38,8.0,13.0,-999,-99.99,,,-99.99,,2013-03-18 16:23:00,
2013-03-18 12:33:00,33.0,-99.9,30.42,NE,45,9.0,13.0,-999,-99.99,,,-99.99,,2013-03-18 16:33:00,
2013-03-18 12:42:00,33.0,-99.9,30.41,NE,51,9.0,13.0,-999,-99.99,,,-99.99,,2013-03-18 16:42:00,
2013-03-18 12:53:00,33.0,-99.9,30.41,NE,35,9.0,13.0,-999,-99.99,,,-99.99,,2013-03-18 16:53:00,
2013-03-18 13:03:00,33.0,-99.9,30.41,NE,34,10.0,13.0,-999,-99.99,,,-99.99,,2013-03-18 17:03:00,
2013-03-18 13:12:00,33.0,-99.9,30.41,NE,36,10.0,14.0,-999,-99.99,,,-99.99,,2013-03-18 17:12:00,
2013-03-18 13:22:00,33.0,-99.9,30.41,NE,50,8.0,12.0,-999,-99.99,,,-99.99,,2013-03-18 17:22:00,
2013-03-18 13:33:00,33.0,-99.9,30.41,NE,43,10.0,13.0,-999,-99.99,,,-99.99,,2013-03-18 17:33:00,
2013-03-18 13:43:00,33.0,-99.9,30.41,NE,51,8.0,13.0,-999,-99.99,,,-99.99,,2013-03-18 17:43:00,
2013-03-18 13:52:00,33.0,-99.9,30.40,NE,40,7.0,12.0,-999,-99.99,,,-99.99,,2013-03-18 17:52:00,
2013-03-18 14:02:00,33.0,-99.9,30.40,NE,41,9.0,12.0,-999,-99.99,,,-99.99,,2013-03-18 18:02:00,
2013-03-18 14:13:00,34.0,-99.9,30.40,NE,42,9.0,13.0,-999,-99.99,,,-99.99,,2013-03-18 18:13:00,
2013-03-18 14:22:00,33.0,-99.9,30.40,NE,52,9.0,12.0,-999,-99.99,,,-99.99,,2013-03-18 18:22:00,
2013-03-18 14:32:00,34.0,-99.9,30.39,ENE,58,8.0,10.0,-999,-99.99,,,-99.99,,2013-03-18 18:32:00,
2013-03-18 14:42:00,34.0,-99.9,30.39,ENE,63,6.0,10.0,-999,-99.99,,,-99.99,,2013-03-18 18:42:00,
2013-03-18 14:52:00,33.0,-99.9,30.38,ENE,78,5.0,10.0,-999,-99.99,,,-99.99,,2013-03-18 18:52:00,
2013-03-18 15:03:00,33.0,-99.9,30.39,SE,137,4.0,12.0,-999,-99.99,,,-99.99,,2013-03-18 19:03:00,
2013-03-18 15:12:00,33.0,-99.9,30.38,SSE,168,7.0,11.0,-999,-99.99,,,-99.99,,2013-03-18 19:12:00,
2013-03-18 15:22:00,33.0,-99.9,30.38,SSE,162,5.0,10.0,-999,-99.99,,,-99.99,,2013-03-18 19:22:00,
2013-03-18 15:33:00,33.0,-99.9,30.37,SE,143,6.0,12.0,-999,-99.99,,,-99.99,,2013-03-18 19:33:00,
2013-03-18 15:42:00,33.0,-99.9,30.37,SE,124,7.0,11.0,-999,-99.99,,,-99.99,,2013-03-18 19:42:00,
2013-03-18 15:52:00,33.0,-99.9,30.37,SE,136,5.0,9.0,-999,-99.99,,,-99.99,,2013-03-18 19:52:00,
2013-03-18 16:03:00,33.0,-99.9,30.37,ESE,119,7.0,10.0,-999,-99.99,,,-99.99,,2013-03-18 20:03:00,
2013-03-18 16:12:00,32.0,-99.9,30.37,SSE,155,8.0,10.0,-999,-99.99,,,-99.99,,2013-03-18 20:12:00,
2013-03-18 16:23:00,33.0,-99.9,30.36,SE,138,7.0,9.0,-999,-99.99,,,-99.99,,2013-03-18 20:23:00,
2013-03-18 16:33:00,33.0,-99.9,30.36,SSE,148,7.0,9.0,-999,-99.99,,,-99.99,,2013-03-18 20:33:00,
2013-03-18 16:43:00,32.0,-99.9,30.36,ESE,120,6.0,11.0,-999,-99.99,,,-99.99,,2013-03-18 20:43:00,
2013-03-18 16:53:00,32.0,-99.9,30.35,ESE,114,9.0,11.0,-999,-99.99,,,-99.99,,2013-03-18 20:53:00,
2013-03-18 17:02:00,32.0,-99.9,30.35,ESE,122,7.0,11.0,-999,-99.99,,,-99.99,,2013-03-18 21:02:00,
2013-03-18 17:12:00,32.0,-99.9,30.35,SE,132,7.0,11.0,-999,-99.99,,,-99.99,,2013-03-18 21:12:00,
2013-03-18 17:23:00,32.0,-99.9,30.36,SE,130,8.0,9.0,-999,-99.99,,,-99.99,,2013-03-18 21:23:00,
2013-03-18 17:33:00,32.0,-99.9,30.35,SE,139,7.0,10.0,-999,-99.99,,,-99.99,,2013-03-18 21:33:00,
2013-03-18 17:43:00,32.0,-99.9,30.35,SSE,158,7.0,10.0,-999,-99.99,,,-99.99,,2013-03-18 21:43:00,
2013-03-18 17:53:00,32.0,-99.9,30.34,ESE,117,7.0,11.0,-999,-99.99,,,-99.99,,2013-03-18 21:53:00,
2013-03-18 18:04:00,32.0,-99.9,30.32,ESE,123,6.0,13.0,-999,-99.99,,,-99.99,,2013-03-18 22:04:00,
2013-03-18 18:13:00,-999.0,-99.9,30.32,ESE,122,8.0,13.0,-999,-99.99,,,-99.99,,2013-03-18 22:13:00,
2013-03-18 18:23:00,32.0,-99.9,30.32,ESE,118,10.0,12.0,-999,-99.99,,,-99.99,,2013-03-18 22:23:00,
2013-03-18 18:33:00,32.0,-99.9,30.32,ESE,122,8.0,13.0,-999,-99.99,,,-99.99,,2013-03-18 22:33:00,
2013-03-18 18:43:00,32.0,-99.9,30.32,ESE,112,8.0,12.0,-999,-99.99,,,-99.99,,2013-03-18 22:43:00,
2013-03-18 18:53:00,32.0,-99.9,30.32,ESE,115,8.0,12.0,-999,-99.99,,,-99.99,,2013-03-18 22:53:00,
2013-03-18 19:03:00,32.0,-99.9,30.30,ESE,123,9.0,13.0,-999,-99.99,,,-99.99,,2013-03-18 23:03:00,
2013-03-18 19:13:00,32.0,-99.9,30.31,ESE,111,7.0,13.0,-999,-99.99,,,-99.99,,2013-03-18 23:13:00,
2013-03-18 19:23:00,32.0,-99.9,30.31,ESE,113,8.0,12.0,-999,-99.99,,,-99.99,,2013-03-18 23:23:00,
2013-03-18 19:33:00,32.0,-99.9,30.31,ESE,118,5.0,12.0,-999,-99.99,,,-99.99,,2013-03-18 23:33:00,
2013-03-18 19:43:00,32.0,-99.9,30.31,ESE,109,8.0,11.0,-999,-99.99,,,-99.99,,2013-03-18 23:43:00,
2013-03-18 19:53:00,33.0,-99.9,30.31,ESE,112,6.0,11.0,-999,-99.99,,,-99.99,,2013-03-18 23:53:00,
2013-03-18 20:03:00,33.0,-99.9,30.32,ESE,105,8.0,11.0,-999,-99.99,,,-99.99,,2013-03-19 00:03:00,
2013-03-18 20:12:00,33.0,-99.9,30.32,ESE,117,6.0,11.0,-999,-99.99,,,-99.99,,2013-03-19 00:12:00,
2013-03-18 20:23:00,33.0,-99.9,30.32,ESE,118,6.0,8.0,-999,-99.99,,,-99.99,,2013-03-19 00:23:00,
2013-03-18 20:33:00,33.0,-99.9,30.33,ESE,107,6.0,8.0,-999,-99.99,,,-99.99,,2013-03-19 00:33:00,
2013-03-18 20:43:00,33.0,-99.9,30.33,ESE,110,6.0,8.0,-999,-99.99,,,-99.99,,2013-03-19 00:43:00,
2013-03-18 20:52:00,33.0,-99.9,30.32,ESE,115,7.0,10.0,-999,-99.99,,,-99.99,,2013-03-19 00:52:00,
2013-03-18 21:02:00,33.0,-99.9,30.31,ESE,112,7.0,10.0,-999,-99.99,,,-99.99,,2013-03-19 01:02:00,
2013-03-18 21:12:00,33.0,-99.9,30.30,ESE,116,7.0,12.0,-999,-99.99,,,-99.99,,2013-03-19 01:12:00,
2013-03-18 21:23:00,33.0,-99.9,30.30,SE,126,5.0,11.0,-999,-99.99,,,-99.99,,2013-03-19 01:23:00,
2013-03-18 21:33:00,33.0,-99.9,30.29,ESE,116,10.0,13.0,-999,-99.99,,,-99.99,,2013-03-19 01:33:00,
2013-03-18 21:53:00,33.0,-99.9,30.29,ESE,114,10.0,14.0,-999,-99.99,,,-99.99,,2013-03-19 01:53:00,
2013-03-18 22:03:00,33.0,-99.9,30.29,ESE,114,10.0,14.0,-999,-99.99,,,-99.99,,2013-03-19 02:03:00,
2013-03-18 22:13:00,34.0,-99.9,30.28,ESE,119,7.0,15.0,-999,-99.99,,,-99.99,,2013-03-19 02:13:00,
2013-03-18 22:23:00,34.0,-99.9,30.28,ESE,116,7.0,14.0,-999,-99.99,,,-99.99,,2013-03-19 02:23:00,
2013-03-18 22:33:00,34.0,-99.9,30.28,ESE,114,9.0,12.0,-999,-99.99,,,-99.99,,2013-03-19 02:33:00,
2013-03-18 22:43:00,34.0,-99.9,30.27,ESE,113,9.0,15.0,-999,-99.99,,,-99.99,,2013-03-19 02:43:00,
2013-03-18 22:53:00,34.0,-99.9,30.27,ESE,109,10.0,14.0,-999,-99.99,,,-99.99,,2013-03-19 02:53:00,
2013-03-18 23:02:00,34.0,-99.9,30.26,ESE,119,8.0,15.0,-999,-99.99,,,-99.99,,2013-03-19 03:02:00,
2013-03-18 23:13:00,34.0,-99.9,30.26,ESE,115,10.0,17.0,-999,-99.99,,,-99.99,,2013-03-19 03:13:00,
2013-03-18 23:23:00,34.0,-99.9,30.25,ESE,110,10.0,14.0,-999,-99.99,,,-99.99,,2013-03-19 03:23:00,
2013-03-18 23:33:00,35.0,-99.9,30.25,ESE,116,8.0,15.0,-999,-99.99,,,-99.99,,2013-03-19 03:33:00,
2013-03-18 23:43:00,35.0,-99.9,30.24,ESE,115,11.0,16.0,-999,-99.99,,,-99.99,,2013-03-19 03:43:00,
2013-03-18 23:54:00,35.0,-99.9,30.24,ESE,111,12.0,16.0,-999,-99.99,,,-99.99,,2013-03-19 03:54:00,